Preview of NWS' New Version of Forecast
This preview is not operational and should not be used for support decisions.

Regional Weather Roundup (RWR)

Issued by Gray - Portland, ME (GYX)

                            
233 
ASUS41 KGYX 220810
RWRGYX
WEATHER ROUNDUP FOR MAINE AND NEW HAMPSHIRE
NATIONAL WEATHER SERVICE GRAY ME
300 AM EST THU FEB 22 2018

MEZ002-005-006-010-012-015-018-020-021-024-026-027-029-220900-
MAINE
  
CITY           SKY/WX    TMP DP  RH WIND       PRES   REMARKS
PORTLAND       CLOUDY    40  25  55 N7        30.52R                  
SANFORD        CLOUDY    41  25  53 N14       30.52R                  
BAR HARBOR     FAIR      34  19  54 VRB6      30.51R                  
WISCASSET      MOCLDY    38  20  48 VRB3      30.53R                  
ROCKLAND       MOCLDY    38  20  48 N9        30.50R                  
FRYEBURG       FAIR      29  25  85 CALM      30.53R                  
LEWISTONAUBURN FAIR      36  21  54 N12       30.53R                  
AUGUSTA        FAIR      34  21  59 N9        30.52R                  
WATERVILLE     FAIR      33  20  58 N6        30.48R                  
BANGOR         FAIR      33  18  53 NW12      30.52R                  
GREENVILLE       N/A     22  12  65 NW14      30.46R WCI   9          
MILLINOCKET    FAIR      28  13  53 NW13      30.53R WCI  17          
HOULTON        FAIR      23   5  46 N15G23    30.50R WCI  10          
PRESQUE ISLE   FAIR      18   5  57 NW6       30.52R                  
FRENCHVILLE    FAIR      10   0  63 NW17      30.47R WCI  -8          
CARIBOU        FAIR      16   2  54 NW13      30.49R WCI   2          
$$

NHZ002-005-008-009-011-012-014-220900-
NEW HAMPSHIRE
  
CITY           SKY/WX    TMP DP  RH WIND       PRES   REMARKS
PORTSMOUTH     CLOUDY    42  25  50 NW10      30.51R                  
ROCHESTER      CLOUDY    40  24  53 NW14      30.51R                  
MANCHESTER     CLOUDY    42  24  49 N12       30.52R                  
CONCORD        CLOUDY    38  23  55 N13       30.55R                  
PLYMOUTH       FAIR      34  21  57 NW6       30.54S                  
BERLIN         FAIR      29  17  61 N8        30.53R                  
WHITEFIELD     FAIR      28  22  78 CALM      30.54S                  
JAFFREY        MOCLDY    39  24  55 N8        30.51R                  
KEENE          CLOUDY    40  25  55 N10       30.54R                  
LEBANON        FAIR      36  21  54 N8        30.56R                  
MT WASHINGTON  PTCLDY    14  -2  48 NW66        N/A  WCI -14          
$$

VTZ005-007-008-220900-
VERMONT
  
CITY           SKY/WX    TMP DP  RH WIND       PRES   REMARKS
ST JOHNSBURY     N/A     30  19  63 MISG      30.57R                  
MONTPELIER     FAIR      28  19  69 N7        30.60R                  
BURLINGTON     FAIR      30  17  58 N9        30.64R                  
$$

MAZ007-012-024-CTZ003-RIZ002-NYZ038-NYZ072-220900-
SOUTHERN NEW ENGLAND AND NY
  
CITY           SKY/WX    TMP DP  RH WIND       PRES   REMARKS
BOSTON         CLOUDY    49  24  37 NW15      30.50R                  
WORCESTER      CLOUDY    44  32  62 N10       30.47R                  
NANTUCKET      CLOUDY    46  40  79 NE13      30.45R                  
PROVIDENCE     CLOUDY    54  40  59 N12       30.46R                  
HARTFORD       CLOUDY    47  32  56 N12       30.50R                  
ALBANY         CLOUDY    39  31  72 N6        30.57R                  
NEW YORK CITY  CLOUDY    53  33  46 N13       30.48R                  
$$

ANZ081-ANZ082-ANZ150-NHZ014-MEZ023>029-220900-
COASTAL MARINE OBSERVATIONS
  
STATION/POSITION TIME  TEMP    WIND        PRES    WAVE
                       AIR SEA DIR/SP/G            HT/PER
                 (UTC) (F)     (DEG/KT/KT) (MB)    (FT/S)
MOUNT DESERT ROC 0800   39     330/ 24/ 27 1032.1R
MATINICUS ROCK   0800   39     350/ 24/ 27 1031.7R
ISLE OF SHOALS   0800   43     320/ 14/ 16 1032.9R
JEFFREYS LEDGE   0736      42                N/A     3/14
GEORGES BANK BUO 0650   57 58              1015.3   14/10
$$

.............KEY..............
   WCI - WIND CHILL
   TC  - TEMPERATURE IN CELSIUS
   VSB - VISIBILITY IN MILES
   HX  - HEAT INDEX
   FAIR- INDICATES FEW OR NO CLOUDS BELOW 12,000 FT, WITH NO 
         SIGNIFICANT WEATHER AND/OR OBSTRUCTIONS TO VISIBILITY.